• In Hungary
  • List of Countries
  • For 7 days
  • Water Temperature
  • Satellite Maps
  • Weather Map
  • News
  • Weather Widgets
  • user-avatar
    Login

    Hourly Weather Belsznica

    Today, 12 December, Tuesday

    Time Temperature Precipitation Wind Pressure Humidity
    00:00 +8°C° 0 mm 10 mps 725 mmHg 79%
    01:00 +9°C° 0 mm 5 mps 726 mmHg 81%
    02:00 +9°C° 0 mm 7 mps 726 mmHg 80%
    03:00 +9°C° 0 mm 8 mps 726 mmHg 80%
    04:00 +8°C° 0 mm 9 mps 727 mmHg 79%
    05:00 +9°C° 0 mm 8 mps 728 mmHg 80%
    06:00 +10°C° 0 mm 8 mps 728 mmHg 80%
    07:00 +10°C° 0 mm 4 mps 729 mmHg 85%
    08:00 +10°C° 0.2 mm 4 mps 730 mmHg 83%
    09:00 +8°C° 0.2 mm 5 mps 731 mmHg 81%
    10:00 +8°C° 0.2 mm 5 mps 732 mmHg 78%
    11:00 +8°C° 0 mm 6 mps 733 mmHg 74%
    12:00 +8°C° 0 mm 6 mps 734 mmHg 69%
    13:00 +8°C° 0 mm 6 mps 735 mmHg 65%
    14:00 +7°C° 0 mm 6 mps 735 mmHg 65%
    15:00 +6°C° 0 mm 5 mps 736 mmHg 66%
    16:00 +5°C° 0 mm 4 mps 737 mmHg 67%
    17:00 +5°C° 0 mm 4 mps 738 mmHg 67%
    18:00 +4°C° 0 mm 4 mps 739 mmHg 68%
    19:00 +4°C° 0 mm 3 mps 740 mmHg 68%
    20:00 +3°C° 0 mm 3 mps 740 mmHg 68%
    21:00 +3°C° 0 mm 3 mps 741 mmHg 69%
    22:00 +4°C° 0 mm 2 mps 741 mmHg 70%
    23:00 +3°C° 0 mm 2 mps 742 mmHg 71%

    Tomorrow, 13 December, Wednesday

    Time Temperature Precipitation Wind Pressure Humidity
    00:00 +3°C° 0 mm 2 mps 742 mmHg 72%
    01:00 +3°C° 0 mm 2 mps 743 mmHg 73%
    02:00 +3°C° 0 mm 2 mps 743 mmHg 75%
    03:00 +2°C° 0 mm 2 mps 743 mmHg 77%
    04:00 +2°C° 0 mm 2 mps 743 mmHg 78%
    05:00 +2°C° 0 mm 2 mps 744 mmHg 80%
    06:00 +1°C° 0 mm 2 mps 744 mmHg 82%
    07:00 +1°C° 0 mm 2 mps 744 mmHg 84%
    08:00 +1°C° 0 mm 2 mps 744 mmHg 81%
    09:00 +2°C° 0 mm 2 mps 744 mmHg 78%
    10:00 +2°C° 0 mm 2 mps 745 mmHg 75%
    11:00 +3°C° 0 mm 2 mps 744 mmHg 72%
    12:00 +3°C° 0 mm 2 mps 744 mmHg 68%
    13:00 +3°C° 0 mm 2 mps 743 mmHg 64%
    14:00 +3°C° 0 mm 2 mps 743 mmHg 68%
    15:00 +2°C° 0 mm 2 mps 742 mmHg 71%
    16:00 +1°C° 0 mm 2 mps 742 mmHg 74%
    17:00 0°C° 0 mm 3 mps 741 mmHg 76%
    18:00 -1°C° 0 mm 3 mps 741 mmHg 77%
    19:00 -1°C° 0 mm 3 mps 740 mmHg 78%
    20:00 -2°C° 0 mm 4 mps 740 mmHg 76%
    21:00 -2°C° 0 mm 4 mps 739 mmHg 74%
    22:00 -2°C° 0 mm 5 mps 738 mmHg 72%
    23:00 -1°C° 0 mm 5 mps 737 mmHg 70%

    Day after tomorrow, 14 December, Thursday

    Time Temperature Precipitation Wind Pressure Humidity
    00:00 -1°C° 0 mm 5 mps 737 mmHg 69%
    01:00 -2°C° 0 mm 6 mps 736 mmHg 67%
    02:00 -1°C° 0 mm 6 mps 735 mmHg 67%
    03:00 -1°C° 0 mm 6 mps 734 mmHg 67%
    04:00 -1°C° 0 mm 6 mps 733 mmHg 67%
    05:00 -1°C° 0.1 mm 6 mps 733 mmHg 68%
    06:00 -1°C° 0.1 mm 7 mps 732 mmHg 70%
    07:00 0°C° 0.1 mm 7 mps 732 mmHg 71%
    08:00 0°C° 0.2 mm 7 mps 732 mmHg 72%
    09:00 +1°C° 0.2 mm 8 mps 732 mmHg 73%
    10:00 +1°C° 0.2 mm 8 mps 732 mmHg 74%
    11:00 +2°C° 0 mm 8 mps 732 mmHg 71%
    12:00 +3°C° 0 mm 7 mps 732 mmHg 69%
    13:00 +4°C° 0 mm 7 mps 733 mmHg 67%
    14:00 +3°C° 0 mm 6 mps 733 mmHg 69%
    15:00 +2°C° 0 mm 6 mps 733 mmHg 71%
    16:00 +1°C° 0 mm 5 mps 733 mmHg 73%
    17:00 +1°C° 0 mm 5 mps 733 mmHg 71%
    18:00 +1°C° 0 mm 5 mps 733 mmHg 69%
    19:00 +1°C° 0 mm 5 mps 733 mmHg 68%
    20:00 +1°C° 0 mm 5 mps 733 mmHg 71%
    21:00 +1°C° 0 mm 5 mps 732 mmHg 75%
    22:00 +1°C° 0 mm 5 mps 731 mmHg 78%
    23:00 +1°C° 0 mm 5 mps 730 mmHg 79%

    15 December, Friday

    Time Temperature Precipitation Wind Pressure Humidity
    00:00 +2°C° 0 mm 6 mps 729 mmHg 79%
    01:00 +2°C° 0 mm 6 mps 727 mmHg 80%
    02:00 +3°C° 0.1 mm 7 mps 727 mmHg 78%
    03:00 +3°C° 0.1 mm 7 mps 726 mmHg 77%
    04:00 +3°C° 0.1 mm 7 mps 725 mmHg 75%
    05:00 +3°C° 0.1 mm 7 mps 726 mmHg 74%
    06:00 +3°C° 0.1 mm 7 mps 727 mmHg 73%
    07:00 +3°C° 0.1 mm 7 mps 728 mmHg 71%
    08:00 +3°C° 0 mm 7 mps 728 mmHg 69%
    09:00 +2°C° 0 mm 6 mps 729 mmHg 66%
    10:00 +2°C° 0 mm 6 mps 729 mmHg 64%
    11:00 +2°C° 0 mm 5 mps 730 mmHg 64%
    12:00 +2°C° 0 mm 5 mps 731 mmHg 64%
    13:00 +2°C° 0 mm 5 mps 731 mmHg 64%
    14:00 +1°C° 0 mm 4 mps 732 mmHg 67%
    15:00 +2°C° 0 mm 3 mps 732 mmHg 69%
    16:00 +2°C° 0 mm 2 mps 732 mmHg 71%
    17:00 +2°C° 0 mm 2 mps 732 mmHg 73%
    18:00 +2°C° 0 mm 2 mps 733 mmHg 75%
    19:00 +1°C° 0 mm 2 mps 733 mmHg 77%
    20:00 +1°C° 0 mm 2 mps 733 mmHg 78%
    21:00 +1°C° 0 mm 2 mps 733 mmHg 80%
    22:00 +1°C° 0 mm 2 mps 733 mmHg 81%
    23:00 -1°C° 0 mm 2 mps 733 mmHg 81%

    16 December, Saturday

    Time Temperature Precipitation Wind Pressure Humidity
    00:00 -1°C° 0 mm 2 mps 733 mmHg 82%
    01:00 -1°C° 0 mm 2 mps 733 mmHg 82%
    02:00 -1°C° 0 mm 2 mps 733 mmHg 83%
    03:00 -1°C° 0 mm 2 mps 733 mmHg 83%
    04:00 -1°C° 0 mm 2 mps 734 mmHg 84%
    05:00 -1°C° 0 mm 2 mps 734 mmHg 84%
    06:00 -1°C° 0 mm 2 mps 734 mmHg 84%
    07:00 -1°C° 0 mm 2 mps 734 mmHg 84%
    08:00 +1°C° 0 mm 2 mps 735 mmHg 81%
    09:00 +2°C° 0 mm 2 mps 735 mmHg 77%
    10:00 +2°C° 0 mm 3 mps 736 mmHg 74%
    11:00 +2°C° 0 mm 3 mps 736 mmHg 72%
    12:00 +3°C° 0 mm 3 mps 736 mmHg 70%
    13:00 +3°C° 0 mm 3 mps 736 mmHg 68%
    14:00 +2°C° 0.1 mm 3 mps 736 mmHg 73%
    15:00 +3°C° 0.1 mm 2 mps 737 mmHg 78%
    16:00 +2°C° 0.1 mm 2 mps 737 mmHg 82%
    17:00 +1°C° 0.1 mm 2 mps 738 mmHg 84%
    18:00 +1°C° 0.1 mm 2 mps 738 mmHg 85%
    19:00 +1°C° 0.1 mm 2 mps 739 mmHg 87%
    20:00 -1°C° 0 mm 2 mps 739 mmHg 87%
    21:00 -1°C° 0 mm 2 mps 739 mmHg 87%
    22:00 -1°C° 0 mm 2 mps 740 mmHg 88%
    23:00 -1°C° 0 mm 2 mps 740 mmHg 87%

    17 December, Sunday

    Time Temperature Precipitation Wind Pressure Humidity
    00:00 -1°C° 0 mm 2 mps 740 mmHg 87%
    01:00 -1°C° 0 mm 2 mps 740 mmHg 87%
    02:00 -1°C° 0 mm 2 mps 741 mmHg 87%
    03:00 -1°C° 0 mm 2 mps 741 mmHg 88%
    04:00 -1°C° 0 mm 2 mps 741 mmHg 88%
    05:00 -1°C° 0 mm 2 mps 741 mmHg 88%
    06:00 -1°C° 0 mm 2 mps 742 mmHg 87%
    07:00 -1°C° 0 mm 2 mps 742 mmHg 87%
    08:00 -1°C° 0 mm 2 mps 743 mmHg 84%
    09:00 +1°C° 0 mm 2 mps 743 mmHg 82%
    10:00 +1°C° 0 mm 2 mps 744 mmHg 79%
    11:00 +2°C° 0.1 mm 2 mps 744 mmHg 77%
    12:00 +2°C° 0.1 mm 2 mps 744 mmHg 74%
    13:00 +1°C° 0.1 mm 3 mps 744 mmHg 72%
    14:00 +1°C° 0.1 mm 2 mps 744 mmHg 75%
    15:00 +1°C° 0.1 mm 2 mps 745 mmHg 78%
    16:00 -1°C° 0.1 mm 2 mps 745 mmHg 81%
    17:00 -1°C° 0 mm 2 mps 746 mmHg 82%
    18:00 -1°C° 0 mm 2 mps 746 mmHg 84%
    19:00 0°C° 0 mm 1 mps 746 mmHg 86%
    20:00 0°C° 0 mm 1 mps 747 mmHg 86%
    21:00 0°C° 0 mm 1 mps 747 mmHg 87%
    22:00 0°C° 0 mm 1 mps 748 mmHg 87%
    23:00 0°C° 0 mm 1 mps 748 mmHg 87%
    Show more